This demonstration page uses our WeatherBlox Daily Observations layout. Learn more.

38.88101, -77.10428

Hourly Observations for January 31, 2016

Temp ( °F °C ) Dew Point ( °F °C ) Humidity (%) Winds ( mph kmh ) Pressure ( in mb ) Visibility ( mi km ) Precip ( " mm )
12:52 am 00:52 Mostly Clear 41 5 24 -4.4 51 51 SSW 8 13 29.98 1015 10 16.0934 0 0
1:52 am 01:52 Partly Cloudy 39 3.9 25 -3.9 57 57 SSW 9 15 29.98 1015 10 16.0934 0 0
2:52 am 02:52 Mostly Cloudy 41 5 24 -4.4 51 51 SSW 6 9 29.97 1015 10 16.0934 0 0
3:52 am 03:52 Mostly Cloudy 38 3.3 26 -3.3 62 62 SSW 8 13 29.98 1015 10 16.0934 0 0
4:52 am 04:52 Mostly Cloudy 38 3.3 26 -3.3 62 62 SSW 5 7 29.98 1015 10 16.0934 0 0
5:52 am 05:52 Cloudy 36 2.2 28 -2.2 73 73 SSW 7 11 29.98 1015 10 16.0934 0 0
6:52 am 06:52 Mostly Cloudy 38 3.3 27 -2.8 65 65 SSW 6 9 29.99 1016 10 16.0934 0 0
7:52 am 07:52 Mostly Cloudy 37 2.8 28 -2.2 70 70 SSW 6 9 30 1016 10 16.0934 0 0
8:52 am 08:52 Mostly Cloudy 40 4.4 29 -1.7 65 65 S 7 11 30.01 1016 10 16.0934 0 0
9:52 am 09:52 Mostly Cloudy 42 5.6 30 -1.1 62 62 S 7 11 30 1016 10 16.0934 0 0
10:52 am 10:52 Mostly Cloudy 44 6.7 30 -1.1 58 58 S 10 17 29.99 1016 10 16.0934 0 0
11:52 am 11:52 Partly Cloudy 49 9.4 31 -0.6 50 50 SSE 9 15 29.96 1015 10 16.0934 0 0
12:52 pm 12:52 Partly Cloudy 52 11.1 31 -0.6 45 45 S 10 17 29.92 1013 10 16.0934 0 0
1:52 pm 13:52 Partly Cloudy 56 13.3 32 0 40 40 S 8 13 29.88 1012 10 16.0934 0 0
2:52 pm 14:52 Partly Cloudy 52 11.1 33 0.6 49 49 S 14 22 29.86 1011 10 16.0934 0 0
3:52 pm 15:52 Mostly Cloudy 50 10 34 1.1 54 54 S 14 22 29.85 1011 10 16.0934 0 0
4:52 pm 16:52 Mostly Cloudy 52 11.1 35 1.7 53 53 S 13 20 29.84 1011 10 16.0934 0 0
5:52 pm 17:52 Mostly Cloudy 50 10 36 2.2 59 59 S 10 17 29.85 1011 10 16.0934 0 0
6:52 pm 18:52 Mostly Cloudy 50 10 37 2.8 61 61 S 14 22 29.84 1010 10 16.0934 0 0
7:52 pm 19:52 Mostly Cloudy 49 9.4 37 2.8 64 64 S 12 19 29.83 1010 10 16.0934 0 0
8:52 pm 20:52 Mostly Cloudy 47 8.3 36 2.2 66 66 S 12 19 29.82 1010 10 16.0934 0 0
9:52 pm 21:52 Mostly Cloudy 51 10.6 37 2.8 59 59 SSW 14 22 29.84 1010 10 16.0934 0 0
10:52 pm 22:52 Mostly Cloudy 51 10.6 37 2.8 59 59 S 14 22 29.83 1010 10 16.0934 0 0
11:52 pm 23:52 Mostly Cloudy 51 10.6 37 2.8 59 59 SSW 5 7 29.85 1011 10 16.0934 0 0

Powered by AerisWeather